Simultaneous Nadir Overpasses (SNOs) Predictions

Prediction of SNOs between AQUA and METOP-A Satellite Orbit:

Table of predicted SNOs for the next 14.0 days since TLE Epoch: 8/18/2018
Index Date (AQUA) Time (AQUA) Lat,Lon (AQUA) SZA (AQUA ) Date (METOP-A) Time (METOP-A) Lat,Lon (METOP-A) SZA (METOP-A ) Distance(km) Time Diff (sec)
1 08/19/2018 06:09:27 74.46, 80.56 61.77 08/19/2018 06:08:14 74.47, 80.55 61.79 0.97 73
2 08/19/2018 06:58:54 -74.53,-111.98 118.14 08/19/2018 06:58:55 -74.52,-111.99 118.16 1.74 1
3 08/19/2018 07:48:23 74.61, 55.47 61.96 08/19/2018 07:49:33 74.59, 55.53 61.92 3.23 70
4 08/22/2018 01:43:40 74.47, 146.98 62.71 08/22/2018 01:42:30 74.49, 147.02 62.73 2.25 70
5 08/22/2018 02:33:07 -74.55, -45.56 117.20 08/22/2018 02:33:11 -74.54, -45.52 117.21 1.50 4
6 08/22/2018 03:22:36 74.62, 121.89 62.89 08/22/2018 03:23:49 74.61, 121.99 62.86 3.52 73
7 08/24/2018 21:17:52 74.49,-146.62 63.67 08/24/2018 21:16:46 74.46,-146.65 63.66 3.32 66
8 08/24/2018 22:07:19 -74.57, 20.84 116.24 08/24/2018 22:07:26 -74.57, 20.95 116.24 3.41 7
9 08/24/2018 22:56:50 74.74,-171.97 63.97 08/24/2018 22:58:01 74.77,-171.16 63.96 23.87 71
10 08/27/2018 16:52:04 74.46, -80.10 64.61 08/27/2018 16:51:02 74.48, -80.19 64.65 3.44 62
11 08/27/2018 17:41:31 -74.54, 87.35 115.30 08/27/2018 17:41:43 -74.54, 87.29 115.29 1.82 12
12 08/27/2018 18:31:05 74.87,-105.84 65.08 08/27/2018 18:32:15 74.89,-104.43 65.04 40.78 70
13 08/30/2018 12:26:17 74.49, -13.73 65.63 08/30/2018 12:25:18 74.50, -13.74 65.65 1.13 59
14 08/30/2018 13:15:44 -74.57, 153.72 114.27 08/30/2018 13:15:59 -74.56, 153.75 114.28 1.14 15




NCC Satellite Simultaneous Nadir Overpasses (SNOs) Prediction Service
